Regional Weather Roundup
Issued by NWS Kansas City/Pleasant Hill, MO

Home | Current Version | Previous Version | Graphics & Text | Print | Product List | Glossary Off
Versions: 1 2 3 4 5 6 7 8 9 10 11 12 13 14 15 16 17 18 19 20 21 22 23 24 25 26 27 28 29 30 31 32 33 34 35 36 37 38 39 40 41 42 43 44 45 46 47 48 49 50

000
ASUS43 KEAX 160511
RWREAX

WEATHER ROUNDUP FOR EASTERN KANSAS AND NORTHWEST MISSOURI
NATIONAL WEATHER SERVICE KANSAS CITY/PLEASANT HILL MO
1200 AM CDT WED APR 16 2014

KSZ040-057-103>105-MOZ028-029-037-043-160600-
...KANSAS CITY METROPOLITAN AREA...

CITY           SKY/WX    TMP DP  RH WIND       PRES   REMARKS
K.C. INTL      PTCLDY    47  26  44 S20       30.00F
K.C. DOWNTOWN  CLEAR     49  26  41 S10G18    30.02F
LEES SUMMIT    MOCLDY    45  27  49 S13G20    30.04F
OLATHE - IXD   PTCLDY    45  29  53 SE13      30.02F
OLATHE - OJC   PTCLDY    45  27  49 S17G24    30.02F
LAWRENCE       CLEAR     46  31  55 SE12      30.00F

$$

MOZ001>008-011>017-020>025-030>033-038>040-044>046-053-054-160600-
...NORTHERN AND CENTRAL MISSOURI...

CITY           SKY/WX    TMP DP  RH WIND       PRES   REMARKS
ST. JOSEPH     PTCLDY    46  29  51 S17       29.97F
MOSBY          FAIR      43  32  65 SE8       30.03F
WARRENSBURG    PTCLDY   N/A N/A N/A SE10      30.08S
WHITEMAN AFB   PTCLDY    44  22  41 S12       30.08F
CLINTON        MOCLDY    45  30  57 SE8       30.10F
SEDALIA        PTCLDY    43  22  43 SE12      30.11F
WARSAW         NOT AVBL
MARSHALL         N/A     45  32  61 SE9       30.12
CHILLICOTHE      N/A     45  28  51 S10       30.06F
MOBERLY        PTCLDY    41  25  52 SE12      30.12F WCI  34
KIRKSVILLE     CLOUDY    38  26  62 S13       30.09F WCI  30

$$

MOZ041-047>049-056>058-063>065-088>090-097-160600-
...EASTERN AND SOUTHERN MISSOURI...

CITY           SKY/WX    TMP DP  RH WIND       PRES   REMARKS
ST. LOUIS INTL PTCLDY    43  20  39 SE10      30.21F
SPIRIT OF STL  CLEAR     38  22  52 SE5       30.20S WCI  34
COLUMBIA       CLEAR     39  25  57 SE7       30.14S WCI  34
JEFFERSON CITY PTCLDY    42  24  49 E8        30.16S
MEXICO         CLEAR     34  28  80 SE6       30.15S WCI  29
HANNIBAL       PTCLDY    39  19  45 SE7       30.14F WCI  34
ROLLA          MOCLDY    38  22  52 SE9       30.14F WCI  31
LEBANON        PTCLDY    41  23  48 SE7       30.14F
OSAGE BEACH    PTCLDY    39  23  52 SE6       30.16S WCI  35
SPRINGFIELD    MOCLDY    42  25  50 SE12      30.12F
BRANSON        CLEAR     43  23  45 SE10      30.16F
NEVADA         MOCLDY    45  27  49 SE10      30.09F
JOPLIN         CLEAR     45  26  47 SE10      30.09F
WEST PLAINS    PTCLDY    40  21  46 SE5       30.18F

$$

IAZ060-094-KSZ022-034>040-054-083-096-NEZ052-066-093-160600-
...KANSAS...SOUTHEAST NEBRASKA AND IOWA...

CITY           SKY/WX    TMP DP  RH WIND       PRES   REMARKS
TOPEKA         PTCLDY    49  29  46 S16       29.97F
MANHATTAN      CLEAR     50  24  36 S16       29.90F
EMPORIA        MOCLDY    48  28  46 S21G28    29.96F
CHANUTE        PTCLDY    47  28  47 SE13      30.04F
WICHITA        PTCLDY    51  19  28 S17       29.93F
OMAHA          CLOUDY    46  30  53 S20       29.84F
LINCOLN        PTCLDY    51  24  34 S20       29.80F
FALLS CITY     PTCLDY    47  30  51 S18G25    29.91F
LAMONI         MOCLDY    43  28  55 S13G23    29.98F
DES MOINES     PTCLDY    40  24  53 SE13      29.99F WCI  32

$$




USA.gov is the U.S. government's official web portal to all federal, state and local government web resources and services.